Location: Lafig�re
(44.4503°N, 4.0357°E)
Time: 16:04:24
(UTC+00:00)

OBJECT-B - Pass Details

Date: 24 September 2020
Orbit: 421 x 433 km, 97.0° (Epoch: 09 October)

Event Time Altitude Azimuth Distance (km) Brightness Sun altitude
Exits shadow 19:28:48 22° 19° (NNE) 977 2.6 -20.4°
Drops below altitude 10° 19:30:16 10° 4° (N) 1,524 3.8 -20.7°
Sets 19:32:22 0° 356° (N) 2,398 4.9 -21.0°
